EHI
0 0 0 0 0 0 0 0 0 0 0 0 0 0 0 0 0 0 0 0 0 0 0 0 0 0 0 0 0 0 0 0 0 0 0 0 0 0 0 0 0 0 0
0 0 0 0 0 0 0 0 0 0 0 0 0 0 0 0 0 0 0 0 0 0 0 0 0 0 0 0 0 0 0 0 0 0 0 0 0 0 0 0 0 0 0
0 0 0 0 0 0 0 0 0 0 0 0 0 0 0 0 0 0 0 0 0 0 0 0 0 0 0 0 0 0 0 0 0 0 0 0 0 0 0 0 0 0 0
0 0 0 0 0 0 0 0 0 0 0 0 0 0 0 0 0 0 0 0 0 0 0 0 0 0 0 0 0 0 0 0 0 0 0 0 0 0 0 0 0 0 0
0 0 0 0 0 0 0 0 0 0 0 0 0 0 0 0 0 0 0 0 0 0 0 0 0 0 0 0 0 0 0 0 0 0 0 0 0 0 0 0 0 0 0
0 0 0 0 0 0 0 0 0 0 0 0 0 0 0 0 0 0 0 0 0 0 0 0 0 0 0 0 0 0 0 0 0 0 0 0 0 0 0 0 0 0 0
0 0 0 0 0 0 0 0 0 0 0 0 0 0 0 0 0 0 0 0 0 0 0 0 0 0 0 0 0 0 0 0 0 0 0 0 0 0 0 0 0 0 0
0 0 0 0 0 0 0 0 0 0 0 0 0 0 0 0 0 0 0 0 0 0 0 0 0 0 0 0 0 0 0 0 0 0 0 0 0 0 0 0 0 0 0
0 0 0 0 0 0 0 0 0 0 0 0 0 0 0 0 0 0 0 0 0 0 0 0 0 0 0 0 0 0 0 0 0 0 0 0 0 0 0 0 0 0 0
0 0 0 0 0 0 0 0 0 0 0 0 0 0 0 0 0 0 0 0 0 0 0 0 0 0 0 0 0 0 0 0 0 0 0 0 0 0 0 0 0 0 0
0 0 0 0 0 0 0 0 0 0 0 0 0 0 0 0 0 0 0 0 0 0 0 0 0 0 0 0 0 0 0 0 0 0 0 0 0 0 0 0 0 0 0
0 0 0 0 0 0 0 0 0 0 0 0 0 0 0 0 0 0 0 0 0 0 0 0 0 0 0 0 0 0 0 0 0 0 0 0 0 0 0 0 0 0 0
0 0 0 0 0 0 0 0 0 0 0 0 0 0 0 0 0 0 0 0 0 0 0 0 0 0 0 0 0 0 0 0 0 0 0 0 0 0 0 0 0 0 0
0 0 0 0 0 0 0 0 0 0 0 0 0 0 0 0 0 0 0 0 0 0 0 0 0 0 0 0 0 0 0 0 0 0 0 0 0 0 0 0 0 0 0
0 0 0 0 0 0 0 0 0 0 0 0 0 0 0 0 0 0 0 0 0 0 0 0 0 0 0 0 0 0 0 0 0 0 0 0 0 0 0 0 0 0 0
0 0 0 0 0 0 0 0 0 0 0 0 0 0 0 0 0 0 0 0 0 0 0 0 0 0 0 0 0 0 0 0 0 0 0 0 0 0 0 0 0 0 0
0 0 0 0 0 0 0 0 0 0 0 0 0 0 0 0 0 0 0 0 0 0 0 0 0 0 0 0 0 0 0 0 0 0 0 0 0 0 0 0 0 0 0
0 0 0 0 0 0 0 0 0 0 0 0 0 0 0 0 0 0 0 0 0 0 0 0 0 0 0 0 0 0 0 0 0 0 0 0 0 0 0 0 0 0 0
0 0 0 0 0 0 0 0 0 0 0 0 0 0 0 0 0 0 0 0 0 0 0 0 0 0 0 0 0 0 0 0 0 0 0 0 0 0 0 0 0 0 0
0 0 0 0 0 0 0 0 0 0 0 0 0 0 0 0 0 0 0 0 0 0 0 0 0 0 0 0 0 0 0 0 0 0 0 0 0 0 0 0 0 0 0
0 0 0 0 0 0 0 0 0 0 0 0 0 0 0 0 0 0 0 0 0 0 0 0 0 0 0 0 0 0 0 0 0 0 0 0 0 0 0 0 0 0 0
0 0 0 0 0 0 0 0 0 0 0 0 0 0 0 0 0 0 0 0 0 0 0 0 0 0 0 0 0 0 0 0 0 0 0 0 0 0 0 0 0 0 0
0 0 0 0 0 0 0 0 0 0 0 0 0 0 0 0 0 0 0 0 0 0 0 0 0 0 0 0 0 0 0 0 0 0 0 0 0 0 0 0 0 0 0
0 0 0 0 0 0 0 0 0 0 0 0 0 0 0 0 0 0 0 0 0 0 0 0 0 0 0 0 0 0 0 0 0 0 0 0 0 0 0 0 0 0 0
0 0 0 0 0 0 0 0 0 0 0 0 0 0 0 0 0 0 0 0 0 0 0 0 0 0 0 0 0 0 0 0 0 0 0 0 0 0 0 0 0 0 0
0 0 0 0 0 0 0 0 0 0 0 0 0 0 0 0 0 0 0 0 0 0 0 0 0 0 0 0 0 0 0 0 0 0 0 0 0 0 0 0 0 0 0
Wind_Speed
2 2 2 2 3 3 4 5 5 5 6 6 7 7 8 8 8 7 8 8 9 9 8 9 10 9 7 6 6 7 7 8 15 11 5 6 8 10 11 9 9 10 11
3 2 2 3 3 4 5 6 6 7 7 7 7 8 8 9 8 8 10 9 10 10 10 9 10 9 9 7 7 8 8 8 12 16 9 7 9 9 9 11 11 10 9
2 2 3 4 4 5 6 7 7 7 7 7 8 8 9 9 9 9 10 10 10 10 10 10 10 10 10 8 9 9 8 10 9 13 12 8 7 7 9 9 11 9 10
2 3 4 5 6 6 7 7 7 7 7 8 8 9 9 10 10 10 10 10 10 10 10 10 10 10 11 10 10 10 10 10 10 11 12 9 7 7 7 8 9 7 9
3 3 5 6 6 6 7 7 7 7 8 8 9 9 9 9 9 10 10 10 10 10 10 10 10 14 18 16 13 10 9 9 9 10 11 10 8 6 6 6 9 8 8
3 5 5 6 6 7 7 7 7 8 8 8 9 9 10 10 18 24 20 10 9 9 10 9 10 13 17 23 25 24 20 14 11 10 10 11 10 8 7 7 9 9 9
4 5 5 6 7 7 7 7 8 8 8 9 9 9 10 13 22 25 25 16 10 9 9 9 10 11 17 10 17 22 21 24 23 15 13 12 11 9 9 11 10 11 11
4 5 6 6 7 7 7 8 8 8 8 9 9 10 10 13 23 25 26 15 9 9 9 10 11 11 11 14 12 12 12 13 15 12 11 12 12 11 11 12 13 13 11
5 6 7 7 7 7 8 9 8 8 8 9 9 10 10 13 22 25 25 10 9 10 10 10 11 11 18 24 16 12 12 11 16 22 23 21 23 23 18 9 8 9 10
6 7 7 7 7 8 9 9 8 8 9 9 10 9 11 11 19 24 24 8 9 9 9 9 17 18 22 24 14 11 14 12 10 12 14 16 14 14 20 11 8 9 9
6 6 7 7 8 9 8 8 8 9 9 9 11 10 10 12 17 22 24 11 9 10 9 8 8 21 24 25 22 12 16 16 10 9 9 8 7 7 8 8 7 8 9
6 7 8 8 8 8 8 9 8 9 10 10 10 11 8 9 14 18 24 23 21 12 10 8 10 22 25 25 19 18 23 19 7 6 7 7 7 7 6 7 8 8 9
6 8 8 9 8 8 8 9 9 8 8 9 9 10 9 7 10 21 24 25 25 15 11 19 23 26 24 15 17 21 17 7 6 7 8 7 6 7 6 6 6 6 7
7 8 8 8 8 8 7 7 8 8 8 9 10 10 10 9 7 7 9 11 16 14 12 16 22 22 17 15 14 11 6 7 8 7 7 6 6 5 5 5 5 4 5
8 8 8 8 8 8 8 7 9 8 10 12 10 9 11 11 13 22 18 11 10 11 13 9 7 6 6 6 6 6 6 6 7 6 6 7 6 6 5 4 4 4 5
8 8 7 7 7 7 9 10 14 17 22 24 23 21 15 20 26 27 26 26 26 25 16 8 7 7 8 8 7 7 6 6 6 6 6 6 7 6 6 5 5 5 5
9 9 7 7 7 8 8 9 12 14 18 21 23 24 23 25 26 26 25 25 24 22 9 7 8 8 8 8 7 7 7 7 6 6 7 6 6 6 6 5 5 5 5
9 11 10 7 7 8 8 9 10 11 13 10 14 21 24 24 25 25 25 20 12 10 6 8 9 8 8 8 8 7 7 6 6 6 6 6 6 6 6 5 5 5 5
8 7 7 7 8 8 8 9 9 11 12 12 10 12 18 21 23 22 20 8 9 9 8 8 8 8 8 8 8 7 7 7 7 6 6 6 6 6 6 5 5 8 6
7 15 15 9 8 8 8 9 10 10 11 11 11 10 9 11 10 10 8 7 8 8 8 9 8 8 8 8 8 8 7 7 7 7 6 6 6 5 6 6 5 5 5
7 10 17 12 8 8 9 10 10 10 11 11 10 12 20 12 9 9 9 8 8 8 9 9 9 9 8 8 7 8 9 8 7 7 6 6 6 6 5 5 6 5 5
7 8 8 9 9 9 10 10 10 10 11 12 11 12 21 12 8 9 9 9 8 8 8 9 9 8 8 8 8 8 9 8 7 7 7 6 6 6 6 6 5 5 5
8 9 9 9 9 14 13 9 9 10 11 11 12 11 10 9 9 9 10 9 8 9 8 8 9 9 8 8 8 8 9 9 8 7 7 7 7 6 6 6 7 6 6
8 9 10 10 9 9 10 10 10 11 11 11 11 10 10 10 10 11 10 9 9 9 9 8 9 12 14 12 9 8 9 10 9 8 10 9 9 7 7 7 7 8 7
8 9 9 9 9 10 10 11 11 11 11 11 11 11 10 10 10 10 10 9 10 11 11 11 10 11 14 15 13 12 16 20 19 12 9 9 10 9 8 8 8 8 8
8 9 9 9 9 10 10 11 11 12 11 11 11 10 10 11 11 10 10 10 10 10 11 10 12 14 15 14 15 18 22 22 21 21 12 8 9 9 9 8 10 9 9
Wind_Direction
203 216 237 266 276 282 281 281 282 283 285 286 286 286 286 286 283 280 278 280 277 275 273 272 270 267 266 262 259 259 261 264 279 284 259 252 248 255 266 264 261 261 266
206 217 244 265 279 284 282 282 281 281 282 281 284 284 285 285 281 279 280 282 277 277 275 273 273 273 268 264 261 262 264 262 272 283 280 265 255 253 257 259 265 264 256
205 225 258 274 278 278 279 280 281 281 283 284 284 283 283 283 281 277 275 276 273 271 271 270 271 270 271 267 264 266 266 268 265 275 281 272 264 259 260 261 261 262 262
213 238 261 268 270 272 275 278 279 279 281 282 281 279 280 282 282 279 276 274 270 269 268 266 267 265 266 267 269 265 266 268 268 272 278 277 268 256 254 263 268 257 260
227 252 262 268 272 275 277 278 279 279 280 279 282 283 282 285 283 283 281 274 271 272 271 267 265 271 276 280 280 273 269 270 273 276 279 282 277 268 260 261 271 271 262
240 258 268 275 278 278 279 280 281 281 280 280 281 282 283 287 298 303 302 289 278 277 278 273 272 280 283 287 289 290 287 283 280 276 278 277 277 270 268 267 271 273 273
255 268 274 277 280 280 283 285 283 282 280 281 280 280 280 284 298 304 304 301 289 281 278 278 283 281 291 282 284 286 286 283 281 278 276 276 276 272 270 270 265 264 266
266 273 276 279 280 282 283 281 281 280 280 281 282 281 280 286 299 306 307 302 286 278 274 273 273 274 275 281 272 270 266 269 272 272 265 265 266 263 257 263 267 268 263
271 275 278 278 281 283 283 282 282 284 285 282 282 282 282 288 299 305 305 293 284 280 276 273 275 273 279 288 287 279 278 273 277 277 275 276 276 279 278 274 267 269 270
270 273 276 276 276 280 280 281 281 283 284 287 287 282 281 282 294 303 305 293 287 284 278 272 280 283 286 289 285 279 280 278 273 276 278 280 279 279 282 274 267 271 273
271 276 277 276 276 277 278 278 283 287 289 288 288 285 280 282 294 301 303 300 287 286 285 280 273 286 289 290 289 283 282 288 280 276 277 273 268 262 260 255 248 254 262
276 278 280 280 282 289 284 285 285 287 290 290 291 291 283 282 291 298 302 302 301 296 290 284 279 289 289 291 292 289 293 299 291 282 277 275 272 268 263 257 255 252 250
280 280 282 284 281 280 281 287 290 286 287 290 291 292 292 283 285 299 302 303 302 299 288 290 294 296 297 295 291 294 297 293 285 282 278 275 268 265 267 267 262 258 258
280 283 284 285 286 282 280 281 284 286 286 287 290 292 293 291 284 284 283 290 296 296 293 291 295 294 290 287 290 291 279 268 274 273 274 274 273 268 268 264 266 268 268
281 283 285 282 283 287 282 276 282 272 277 289 288 287 293 295 293 300 303 299 295 290 300 293 287 284 274 271 271 269 266 270 276 270 273 277 276 272 269 260 258 258 257
286 285 283 284 285 286 289 292 287 288 294 295 296 296 294 294 301 305 307 308 309 308 310 300 296 290 286 283 281 278 272 270 268 268 271 274 276 272 270 265 256 251 257
278 284 285 284 286 288 289 292 297 299 295 295 297 299 298 300 304 307 308 310 310 313 307 293 289 286 284 282 277 275 275 272 268 268 270 271 271 271 271 267 257 253 253
277 285 290 284 284 284 285 286 288 294 299 296 295 296 299 302 305 307 308 312 307 304 283 284 285 284 284 282 277 274 276 275 269 265 266 265 264 266 268 266 259 251 253
281 280 282 280 280 280 283 286 287 288 290 293 294 294 298 303 304 302 306 299 294 292 288 284 282 282 283 282 278 274 272 273 271 267 264 262 259 259 262 262 258 262 258
280 290 297 291 285 286 287 287 288 288 289 290 290 293 298 299 295 295 293 285 284 286 286 285 283 280 280 279 277 275 272 269 267 264 261 259 257 254 256 258 255 254 252
282 287 295 295 285 285 286 285 285 286 287 288 287 291 298 299 294 293 292 288 284 285 286 284 283 281 278 276 276 273 269 268 264 260 258 256 253 253 251 252 251 248 250
282 281 283 284 285 285 286 283 284 286 288 289 291 293 298 295 287 287 287 286 283 280 280 281 281 278 275 274 275 276 272 269 264 259 257 255 253 252 249 248 248 245 245
280 284 287 286 285 290 295 289 288 288 289 290 291 292 292 289 286 286 286 285 285 283 281 278 280 280 276 272 270 269 270 269 265 259 257 257 254 250 245 244 243 244 244
282 285 287 289 290 289 290 290 289 289 289 290 291 290 288 287 287 287 287 285 285 285 281 278 277 278 278 277 273 268 265 265 263 258 252 251 251 247 244 242 241 240 241
286 287 288 288 290 291 291 291 291 291 291 292 291 290 289 288 288 288 286 285 285 284 283 281 279 279 278 276 275 273 274 276 276 269 252 246 244 239 238 240 240 238 235
290 290 290 290 288 289 290 292 292 291 290 290 290 289 289 289 288 287 286 285 285 286 285 283 278 277 278 279 276 277 280 280 278 275 264 248 239 237 233 235 234 234 233